Mount Vernon, AL (36560)

2:08 PM CST on February 26, 2017 (GMT -0600)
ME0390 | | Change Station

Elev 49 ft 31.15 °N, 88.00 °W | Updated 13 seconds ago

Clear
Clear
68.0 °F
Feels Like 68.0 °F
N
1.0
Wind Variable Wind from SSW
Gusts 5.0 mph

Today
High -- | Low -- °F
--% Chance of Precip.
Yesterday
High -- | Low -- °F
Precip. -- in
Pressure 30.15 in
Visibility 10.0 miles
Clouds Clear
Dew Point 29 °F
Humidity 23%
Rainfall 0.00 in
Snow Depth Not available.
6:21 AM 5:48 PM
New Moon, 0% visible
METAR KMOB 261956Z 13006KT 10SM CLR 19/M03 A3015 RMK AO2 SLP210 T01941033
Pressure 30.15 in
Visibility 10.0 miles
Clouds Clear
Dew Point 29 °F
Humidity 23%
Rainfall 0.00 in
Snow Depth Not available.
6:21 AM 5:48 PM
New Moon, 0% visible
METAR KMOB 261956Z 13006KT 10SM CLR 19/M03 A3015 RMK AO2 SLP210 T01941033

Get Your Daily Forecast Email!

Thanks for signing up!

Be on the lookout for a verification email in your inbox.

You'll start receiving the daily forecast at 8 AM.

×

10-Day Weather Forecast

Almanac

Astronomy

Feb. 26, 2017 Rise Set
Actual Time
Civil Twilight
Nautical Twilight
Astronomical Twilight
Moon
Length of Visible Light
Length of Day
Tomorrow will be .
, % of the Moon is Illuminated

Today's Extremes

State Highs State Lows

Community

WunderPhotos

Upload Photos

1,962,540 photos uploaded!

WunderBlog® & News

Nearby

Air Quality

  Air Quality AQ Index Pollutant
Not available.

Snow Depth

Station Depth Elevation

Earthquake Activity

City Distance Mag. Time & Date
Minimum magnitude displayed is 2.5.

Coastal Water Temperatures

Place Temperature

Stations

Nearby Weather Stations

Station Location Temp. Windchill Dew Point Humidity Wind Precip. Elev Updated Type
                   

Watches & Warnings

There are currently no watches in effect.